Regional Weather Roundup
Issued by NWS Green Bay, WI

Home | Current Version | Previous Version | Text Only | Print | Product List | Glossary On
Versions: 1 2 3 4 5 6 7 8 9 10 11 12 13 14 15 16 17 18 19 20 21 22 23 24 25 26 27 28 29 30 31 32 33 34 35 36 37 38 39 40 41 42 43 44 45 46 47 48 49 50
000
ASUS43 KGRB 191911
RWRGRB

NORTH-CENTRAL AND NORTHEAST WISCONSIN REGIONAL WEATHER ROUNDUP
NATIONAL WEATHER SERVICE GREEN BAY WI
200 PM CDT TUE SEP 19 2017

WIZ005-009-010>012-018-019-192000-
NORTH CENTRAL WISCONSIN

CITY           SKY/WX    TMP DP  RH WIND       PRES   REMARKS
IRONWOOD       SUNNY     74  56  53 SE12G17   29.94F
MANITOWISH WTR MOSUNNY   73  56  56 SE9       29.97F
ARBOR VITAE    SUNNY     76  58  54 SE12G17   29.96F
EAGLE RIVER    SUNNY     73  51  46 SE7       29.98F
LAND O LAKES   SUNNY     73  53  48 SE8G16    30.00F
RHINELANDER    MOSUNNY   74  56  53 S10       29.98F
PHILLIPS       MOSUNNY   74  57  56 SE10      29.95F
ANTIGO         SUNNY     71  58  64 SE13      29.99F
TOMAHAWK         N/A     72  54  52 SE6       29.97F
MERRILL        NOT AVBL
$$

WIZ013-073-192000-
NORTHEAST WISCONSIN

CITY           SKY/WX    TMP DP  RH WIND       PRES   REMARKS
IRON MOUNTAIN  MOSUNNY   70  56  61 SE8       29.99F
MARINETTE      SUNNY     71  58  63 E9        30.00F
OCONTO         MOSUNNY   72  59  65 E6        29.99F
$$

WIZ017-030-035>037-045-192000-
CENTRAL WISCONSIN

CITY           SKY/WX    TMP DP  RH WIND       PRES   REMARKS
MEDFORD        SUNNY     73  55  51 SE10G17   29.95F
WAUSAU         SUNNY     74  54  49 S8G18     29.95F
MOSINEE        NOT AVBL
MARSHFIELD     SUNNY     76  53  44 SE12      29.95F
WISC RAPIDS    SUNNY     79  52  38 SE9       29.96F
STEVENS POINT  SUNNY     74  52  46 SE8       29.96F
WAUPACA        SUNNY     80  51  36 E9        29.96F
SHAWANO        PTSUNNY   75  62  63 E7        29.98F
CLINTONVILLE   MOSUNNY   73  59  60 E7        29.98F
WAUTOMA        SUNNY     79  53  40 VRB7      29.95F
$$

WIZ038-039-048-051-192000-
FOX VALLEY

CITY           SKY/WX    TMP DP  RH WIND       PRES   REMARKS
NWS GREEN BAY  MOSUNNY   74  61  63 E10       29.98F
APPLETON       PTSUNNY   73  57  56 E5        29.96F
OSHKOSH        SUNNY     74  62  66 E9        29.96F
FOND DU LAC    SUNNY     77  55  46 SE7       29.96F
$$

WIZ022-050-052-192000-
EAST CENTRAL WISCONSIN

CITY           SKY/WX    TMP DP  RH WIND       PRES   REMARKS
EPHRAIM        FAIR      70  54  56 E8        30.00F
WASHINGTON ISL NOT AVBL
STURGEON BAY   SUNNY     71  57  61 VRB6      30.00F
MANITOWOC      SUNNY     68  59  73 VRB7      30.00F
SHEBOYGAN      MOSUNNY   73  64  73 E9        29.98F
$$

LMZ563-521-522-541>543-192000-
LAKESHORE

STATION/POSITION TIME  TEMP    WIND        PRES    VSBY  WAVE
                       AIR SEA DIR/SP/G                  HT/PER
                 (UTC) (F)     (DEG/KT/KT) (MB)    (MI)  (FT/S)
SHEBOYGAN LKSHOR 1900   65      70/  8/  8 1015.1F
KEWAUNEE LKSHORE 1848   67      40/  2/  5 1015.3F
NORTHPORT PIER   1840   66     100/  7/  8 1016.3F
N MID LAKE BUOY  1850   64 65   90/ 10/ 10 1017.0F         1/ 3
S GREEN BAY BUOY 1900   69 68  110/  6/  6 1015.3
MENOMINEE LKSHOR 1848   69      70/  3/  4 1015.5F
$$



USA.gov is the U.S. government's official web portal to all federal, state and local government web resources and services.